Погода в Осташкове

Погода в Осташкове : погода сейчас, прогноз погоды и архив. Всё, что Вы хотите узнать о погоде в Осташкове!

Поиск расширенной информации на нашем сайте:

Другие новости

Новости СМИ2

Главная страница сайта

Новости сайта

03.07.2017

Напоминаем, что на нашем специализированном сайте Метеоцентр.Азия вы можете получить высокодетализированные автоматические прогнозы погоды по пунктам России, СНГ и мира в авиационном формате (включающие направление и скорость ветра, видимость, явления погоды, количество и форму облачности, нижнюю и верхнюю границу облачности).


Погода в Осташкове - сегодня

Время (UTC), дата Ветер
(°,м/с) 
Видим.   Явления Облачность Т
(°С)
Тd
(°С)
f(%) Тe
(°С)
Pmin
(гПа)
dP
(гПа)
Po
(мм)
O2
(г/м3)
Тmin Tmax R s Состояние
почвы
09 20.09.18 280 (З) 10 км    ясно 
+19.8 +12.6 63 +26  1015.4  0.8  743  277           
12 20.09.18 280 (З) 10 км    3/0 верхняя 
[Ci fib]
+21.9 +11.4 51 +25  1015.1  -0.2  743  275           
15 20.09.18 270 (З) 10 км    4/0 верхняя 
[Ci fib]
+20.5 +12 58 +25  1015.5  0.3  743  276           
21 20.09.18 тихо ()   4000 м  дымка  ясно 
+10.5 +10.1 97 +12  1016.9  0.1  743  287           
00 21.09.18 120 (ЮВ) 4000 м  дымка  ясно 
+10.1 +9.8 98 +12  1017  743  287           
03 21.09.18 тихо ()   4000 м  дымка  6/0 средняя 
[Ac trans]
+10.2 +10 99 +12  1017.4  0.4  744  287  +9.4         
09 21.09.18 200 (Ю) 10 км    4/0 средняя 
[Ac trans]
+23.2 +14.4 58 +31  1016.3  0.1  744  273           
12 21.09.18 200 (Ю) 10 км    3/3 1000 м 
[Cu med, cong]
+25.2 +14.2 50 +33  1015.8  -0.4  743  271           
15 21.09.18 190 (Ю) 10 км    3/3 600 м 
[Sc]
+22.7 +14.2 59 +30  1015.3  -0.7  743  274           
21 21.09.18 170 (Ю) 4000 м  дымка  ясно 
+14.6 +14 96 +23  1015.1  -0.8  742  281           
00 22.09.18 160 (Ю) 4000 м  дымка  ясно 
+13.2 +13 99 +20  1014.2  -1  742  282           
09 22.09.18 170 (Ю) 10 км    ясно 
+23.3 +13.1 53 +29  1007.6  -1.6  737  271           
21 22.09.18 230 (ЮЗ) 4000 м  дымка{ливн. осадки}  10/10 300 м 
[St]
+9.2 +8.6 96 +10  1009.1  -0.2  738  286           
03 23.09.18 210 (ЮЗ) 4000 м  дымка{ливн. осадки}  10/10 300 м 
[St]
+9 +8.9 99 +10  1007  -1.4  736  285  +8.6       
06 23.09.18 220 (ЮЗ) 4000 м  дымка{ливн. осадки}  8/8 600 м 
[Sc]
+9.4 +8.9 97 +9  1006.8  -0.2  736  285  +8.6      влажная 
09 23.09.18 220 (ЮЗ) 10 км    8/8 1000 м 
[Cu med, cong]
+12.3 +7.4 72 +12  1006.3  -0.2  736  282           
12 23.09.18 220 (ЮЗ) 10 км    8/8 1000 м 
[Cu med, cong]
+11.7 +6.4 70 +12  1006.7  0.3  736  283           
15 23.09.18 210 (ЮЗ) 10 км    6/6 600 м 
[Sc]
+11.2 +5.7 69 +11  1006.3  -0.5  736  284           
21 23.09.18 220 (ЮЗ) 4000 м  дымка  4/4 600 м 
[Sc]
+7 +6.3 95 +8  1006.9  0.3  736  288           
03 24.09.18 170 (Ю) 4000 м  дымка  8/8 600 м 
[Sc]
+6.3 +6.1 99 +7  1006.4  0.3  735  289  +4.8         
06 24.09.18 170 (Ю) 4000 м  дымка  9/9 600 м 
[Sc]
+7.1 +6.5 96 +8  1005.8  -0.6  735  288  +4.8        влажная 
09 24.09.18 170 (Ю) 10 км    10/10 300 м 
[St]
+9.2 +6.9 86 +10  1004.3  -1.2  734  285           
03 25.09.18 320 (СЗ) 5-10{12}  4000 м  дымка{ливн. осадки}  10/10 300 м 
[St]
+7.3 +5.8 90 +6  1001.6  2.7  732  286  +6.4    17     
06 25.09.18 310 (СЗ) 4{12}  4000 м  дымка{ливн. осадки}  10/10 300 м 
[St]
+6.7 +4.5 86 +5  1004.9  3.2  734  288  +6.4    10    влажная 
09 25.09.18 300 (СЗ) 4{12}  10 км    9/9 300 м 
[St]
+7.1 +4.8 85 +6  1007.9  2.9  737  288           
Время (UTC), дата Ветер
(°,м/с) 
Видим.   Явления Облачность Т
(°С)
Тd
(°С)
f(%) Тe
(°С)
Pmin
(гПа)
dP
(гПа)
Po
(мм)
O2
(г/м3)
Тmin Tmax R s Состояние
почвы

Для получения пояснительной информации подведите курсор к названию столбца.

ПОГОДА в Осташкове - архив

Всё, что Вы хотите узнать о погоде в Осташкове - удобно и подробно!

Выберите нужную дату (начиная с 1 января 2015* года) и нажмите кнопку "Найти".
Будут отображены архивные сводки погоды по пункту Осташков, начиная с указанной даты.


Отображать данные в формате CSV (для использования в таблицах Excel)


Внимание! Наш архив погоды предназначен исключительно для личного некоммерческого использования в познавательных целях. Если Вам необходимы официальные справки о состоянии погоды (для производственных, юридических, коммерческих и т.п. целей), обращайтесь в органы Росгидромета.

*Примечание: данная дата относится к архиву по метеостанциям СССР (Россия, СНГ, Балтия).
Архив по метеостанциям Зарубежной Европы и Азии (кроме Китая) хранится 10 дней, по другим регионам земного шара (Китай, Африка, Америка, Австралия, Океания) - 1 день.

Осташков - район местоположения метеостанции


Название, широта, долгота, высота метеостанции:
Осташков 57.1°ш. 33.1°д. 218 м над ур. моря [Российская Федерация]

Дополнительная информация

В oтличие oт бoльшинства пoгoдных сайтoв мы публикуем пoдрoбную метеoинфoрмацию в детальнoм прoфессиoнальнoм фoрмате.

Характеристики температуры и влажнoсти вoздуха измеряются на высoте 2 м в тени вдали oт зданий и деревьев.
Скoрoсть ветра измеряется на высoте 10 м (на урoвне рoста челoвека скoрoсть ветра ниже в 1.5-2 раза). Если метеoстанция нахoдится в гoрoде или в лесу, тo скoрoсть ветра занижена на 2-4 м/с пo сравнению с oткрытым местoм. Скoрoсть ветра над акватoриями крупных рек и oзёр, а также на вершинах хoлмoв на 2-5 м/с выше, чем в oбычных услoвиях.
Атмoсфернoе давление в разных тoчках местнoсти мoжет значительнo oтличаться oт давления на метеoстанции, в зависимoсти oт услoвий рельефа (при пoдъёме на 10 м давление пoнижается примернo на 1 мм рт.ст.).